TimeIST,TemperatureF,Dew PointF,Humidity,Sea Level PressureIn,VisibilityMPH,Wind Direction,Wind SpeedMPH,Gust SpeedMPH,PrecipitationIn,Events,Conditions,WindDirDegrees,DateUTC
2:00 AM,63,42,34,29.90,12,NNE,4.6,,,,,30,2013-03-03 00:00:00
5:50 AM,57.2,42.8,59,29.89,6.2,Variable,2.3,-,N/A,,Scattered Clouds,0,2013-03-03 03:50:00
6:50 AM,59.0,42.8,55,29.89,6.2,Variable,2.3,-,N/A,,Scattered Clouds,0,2013-03-03 04:50:00
7:50 AM,60.8,44.6,55,29.92,5.6,Variable,3.5,-,N/A,,Scattered Clouds,0,2013-03-03 05:50:00
8:00 AM,63,43,36,29.91,,North,1.2,,,,,10,2013-03-03 06:00:00
8:50 AM,68.0,42.8,40,29.92,5.6,Variable,3.5,-,N/A,,Partly Cloudy,0,2013-03-03 06:50:00
9:50 AM,75.2,46.4,36,29.92,-9999.0,South,11.5,-,N/A,,Clear,190,2013-03-03 07:50:00
10:50 AM,77.0,46.4,34,29.92,-9999.0,South,9.2,-,N/A,,Clear,190,2013-03-03 08:50:00
11:50 AM,78.8,48.2,34,29.89,6.2,South,9.2,-,N/A,,Scattered Clouds,190,2013-03-03 09:50:00
1:50 PM,82.4,44.6,26,29.83,6.2,SSW,12.7,-,N/A,,Mostly Cloudy,210,2013-03-03 11:50:00
2:00 PM,83,45,16,29.81,16,SSW,5.8,,,,Clear,200,2013-03-03 12:00:00
2:50 PM,80.6,41.0,24,29.83,6.2,SW,11.5,-,N/A,,Mostly Cloudy,230,2013-03-03 12:50:00
3:50 PM,84.2,46.4,27,29.80,6.2,SSW,18.4,-,N/A,,Scattered Clouds,210,2013-03-03 13:50:00
4:50 PM,82.4,46.4,28,29.80,6.2,SW,13.8,-,N/A,,Partly Cloudy,230,2013-03-03 14:50:00
5:50 PM,80.6,46.4,30,29.83,-9999.0,SW,12.7,-,N/A,,Clear,230,2013-03-03 15:50:00
6:50 PM,80.6,46.4,30,29.83,-9999.0,SW,10.4,-,N/A,,Clear,230,2013-03-03 16:50:00
7:50 PM,80.6,48.2,32,29.86,-9999.0,WSW,6.9,-,N/A,,Clear,240,2013-03-03 17:50:00
8:00 PM,78,47,23,29.85,,WSW,3.5,,,,,240,2013-03-03 18:00:00
8:50 PM,78.8,50.0,36,29.86,-9999.0,SW,6.9,-,N/A,,Clear,230,2013-03-03 18:50:00
9:50 PM,78.8,50.0,36,29.86,-9999.0,WSW,8.1,-,N/A,,Clear,250,2013-03-03 19:50:00